Location: Unspecified
(0.0000°N, 0.0000°E)
Time: 19:37:22
(UTC+00:00)

Amsat-Oscar-6 - Pass Details

Date: 20 June 2019
Orbit: 1448 x 1454 km, 101.8° (Epoch: 19 August)

Event Time Altitude Azimuth Distance (km) Brightness Sun altitude
Rises 01:40:06 0° 56° (NE) 4,546 ? -56.5°
Reaches altitude 10° 01:44:45 10° 79° (E) 3,570 ? -55.7°
Enters shadow 01:46:27 13° 91° (E) 3,362 ? -55.4°
